Regional Weather Roundup
Issued by NWS

Home | Current Version | Previous Version | Graphics & Text | Print | Product List | Glossary On
Versions: 1 2 3 4 5 6 7 8 9 10 11 12 13 14 15 16 17 18 19 20 21 22 23 24 25 26 27 28 29 30 31 32 33 34 35 36 37 38 39 40 41 42 43 44 45 46 47 48 49 50
000
ASUS43 KDMX 191101
RWRIA

WEATHER ROUNDUP FOR IOWA
NATIONAL WEATHER SERVICE DES MOINES IA
600 AM CDT THU APR 19 2018

NOTE: "FAIR" INDICATES FEW OR NO CLOUDS BELOW 12,000 FEET WITH NO
SIGNIFICANT WEATHER AND/OR OBSTRUCTIONS TO VISIBILITY.

* - THESE STATIONS ARE NOT NWS STATIONS...THUS NOT UNDER NWS
QUALITY CONTROL.  THEY ALSO DO NOT REPORT WEATHER SUCH
AS PRECIPITATION OR FOG.

IAZ001>003-012>014-020>022-031>034-043>046-191200-
   NORTHWEST IOWA

CITY           SKY/WX    TMP DP  RH WIND       PRES   REMARKS
CARROLL *      CLEAR     30  28  93 N10       30.33R WCI  21
CHEROKEE *     CLEAR     26  26  97 N3        30.37R
DENISON *      CLEAR     28  28 100 CALM      30.36R
LE MARS *      CLOUDY    27  25  93 CALM      30.38R
ORANGE CITY *  CLOUDY    30  21  69 NE6       30.36R WCI  24
SHELDON *      CLOUDY    21  16  79 CALM      30.35R
SIOUX CITY     CLEAR     29  26  89 NW8       30.38R WCI  21
SPENCER        CLOUDY    24  16  71 N9        30.35R WCI  14
STORM LAKE *   CLEAR     28  21  74 N13       30.34R WCI  18
$$

IAZ055>058-069>071-079>083-090>094-191200-
   SOUTHWEST IOWA

CITY           SKY/WX    TMP DP  RH WIND       PRES   REMARKS
ATLANTIC *     CLEAR     27  27 100 N3        30.34R
AUDUBON *      CLEAR     30  27  86 NW8       30.34R WCI  23
CLARINDA *       N/A     27  25  93 N3        30.37R
COUNCIL BLFS * CLEAR     30  30 100 N7        30.35R WCI  23
CRESTON *      CLEAR     25  25 100 NW7       30.32R WCI  17
HARLAN  *      CLEAR     30  30 100 N7        30.37R WCI  23
LAMONI         CLEAR     27  24  89 NW8       30.30R WCI  19
RED OAK *      CLEAR     25  25 100 NW3       30.35R
SHENANDOAH *   CLEAR     28  27  93 CALM      30.36R
$$

IAZ047>049-059>061-072>074-084-191200-
   CENTRAL IOWA

CITY           SKY/WX    TMP DP  RH WIND       PRES   REMARKS
AMES           CLEAR     30  26  85 N10       30.32R WCI  21
ANKENY *       CLEAR     32  28  86 N10       30.32R WCI  24
BOONE *        CLEAR     28  27  93 N9        30.31R WCI  20
CHARITON *     CLEAR     30  28  93 N8        30.28R WCI  23
DES MOINES     PTCLDY    33  28  81 N10       30.30R WCI  25
GRINNELL*      CLEAR     30  28  92 N8        30.30R WCI  22
KNOXVILLE *    MOCLDY    32  28  86 N9        30.28R WCI  24
MARSHALLTOWN   CLOUDY    27  25  92 N7        30.30R WCI  19
NEWTON *       CLEAR     30  28  93 N10       30.30R WCI  21
PELLA *        CLEAR     32  29  89 N8        30.30R WCI  24
$$

IAZ004>006-015-016-023>025-035-036-191200-
   NORTH CENTRAL IOWA

CITY           SKY/WX    TMP DP  RH WIND       PRES   REMARKS
ALGONA *       CLOUDY    21  18  86 N5        30.34R WCI  15
CLARION *      CLOUDY    23  18  80 N9        30.33R WCI  13
ESTHERVILLE    CLOUDY    19  12  74 N12       30.34R WCI   7
FORT DODGE *   CLOUDY    27  23  85 N5        30.34R WCI  22
MASON CITY     CLOUDY    17  14  88 NW6       30.33R WCI   9
FOREST CITY *  FAIR      25  21  86 N3        30.33R
IOWA FALLS *   FAIR      28  23  83 N6        30.32R WCI  21
$$

IAZ007>011-017>019-026>030-037>042-050>054-066-191200-
   NORTHEAST IOWA

CITY           SKY/WX    TMP DP  RH WIND       PRES   REMARKS
CEDAR RAPIDS   FAIR      29  26  89 N9        30.27R WCI  20
CHARLES CITY * FAIR      19  19 100 N8        30.31R WCI   9
CLINTON *      FAIR      29  27  92 N12       30.25R WCI  19
DECORAH *      FAIR      25  23  93 NW6       30.29R WCI  18
DUBUQUE        FAIR      25  22  88 N10       30.25R WCI  15
MONTICELLO *   FAIR      27  25  93 NW3       30.28R
OELWEIN *      FAIR      23  23 100 N12       30.30R WCI  12
WATERLOO       FAIR      23  20  88 NW5       30.31R WCI  17
$$

IAZ064-065-067-068-078-191200-
   EAST CENTRAL IOWA

CITY           SKY/WX    TMP DP  RH WIND       PRES   REMARKS
DAVENPORT      CLOUDY    32  30  92 NW8       30.27  WCI  25
IOWA CITY      CLOUDY    34  29  82 N8        30.30R WCI  27
MUSCATINE *    CLOUDY    36  30  80 N9        30.28R WCI  29
QUAD CITIES    CLOUDY    35  31  85 NW8       30.24R WCI  29
$$

IAZ062-063-075>077-085>089-095>099-191200-
   SOUTHEAST IOWA

CITY           SKY/WX    TMP DP  RH WIND       PRES   REMARKS
BURLINGTON     CLOUDY    34  29  82 N8        30.26R WCI  27
FAIRFIELD *    PTCLDY    30  28  93 NW9       30.28R WCI  22
FORT MADISON * CLOUDY    34  30  86 NW10      30.27R WCI  26
KEOKUK *       CLOUDY    34  30  86 NW12      30.27R WCI  25
OSKALOOSA *    FAIR      30  28  93 N10       30.29R WCI  21
CENTERVILLE *    N/A     30  30 100 CALM      30.29R
OTTUMWA        CLEAR     31  28  89 N13       30.28R WCI  21
WASHINGTON *   CLOUDY    32  32 100 NW12      30.29R WCI  23
$$

ABBREVIATIONS USED IN REMARKS
   TC - TEMPERATURES IN CELSIUS
  WCI - WIND CHILL INDEX
   HX - HEAT INDEX
  VSB - VISIBILITY
$$




USA.gov is the U.S. government's official web portal to all federal, state and local government web resources and services.